Location: Bretagne
(43.8474°N, 0.4650°W)
Time: 13:31:07
(UTC+00:00)

Radarsat Rocket - Pass Details

Date: 21 April 2026
Orbit: 933 x 1491 km, 100.5° (Epoch: 12 May)

Event Time Altitude Azimuth Distance (km) Brightness Sun altitude
Rises 19:10:55 0° 175° (S) 4,514 7.2 -3.9°
Reaches altitude 10° 19:13:43 10° 179° (S) 3,577 6.7 -4.4°
Maximum altitude 19:22:08 60° 258° (WSW) 1,682 5.6 -5.8°
Drops below altitude 10° 19:30:37 10° 337° (NNW) 3,599 7.7 -7.2°
Sets 19:33:28 0° 342° (NNW) 4,542 8.2 -7.7°
